Location: Clermont
(50.2608°N, 4.3172°E)
Time: 21:42:29
(UTC+00:00)

GENESIS II - Pass Details

Date: 13 August 2020
Orbit: 490 x 537 km, 64.5° (Epoch: 21 September)

Event Time Altitude Azimuth Distance (km) Brightness Sun altitude
Rises 22:07:21 0° 318° (NW) 2,691 9.2 -21.8°
Reaches altitude 10° 22:09:34 10° 319° (NW) 1,791 8.0 -22.0°
Maximum altitude 22:13:36 90° 251° (WSW) 534 4.1 -22.2°
Enters shadow 22:13:36 89° 193° (SSW) 534 4.1 -22.2°
